Weather in Suhinichi

Russia / Kaluga Oblast     54°06′06″N   35°20′21″E
temp.,
°C
wind,
m/s
gust,
m/s
humid.,
%
clouds,
%
prec.,
mm/h
press.,
hPa
HPBL,
m
15 april, thu
thu1500:00+11ne2281100 0.2 101527
03:00+10ene2374100 0.2 101446
06:00+10e1173100 0.0 101412
09:00+11ne3673100 0.1 1014188
12:00+15ese6960100 0.1 10131215
15:00+15ese61060100 1.1 10131462
18:00+13se4107297 0.5 1013494
21:00+11ese238551 0.9 101454
16 april, fri
fri1600:00+10ene3990100 0.5 1014216
03:00+8ene389374 0.6 1014177
06:00+7e359346 0.1 1015104
09:00+11e498085 0.1 1016536
12:00+14ese5867100 1.3 10161285
15:00+15e5764100 2.9 10161326
18:00+12ese4982100 2.5 1017447
21:00+10e2389100 5.1 101864
17 april, sat
sat1700:00+9ene3594100 0.1 1018121
03:00+9ene31097100 0.4 1018299
06:00+8ene4997100 0.5 1019290
09:00+10ene588894 0.6 1020533
12:00+11ene5883100 0.2 1021751
15:00+12ne5978100 0.3 10211134
18:00+13ene7117387 0.9 10201029
21:00+10ene5147841 1.6 1022586
18 april, sun
sun1800:00+8ne41286100 0.0 1023385
03:00+6ene5128422 0.0 1024368
06:00+4ene410835 0.0 1025296
09:00+8ene58675 0.0 1025522
12:00+12ene57515 0.0 10261140
15:00+13ene57455 0.0 10261539
18:00+12ene47522 0.0 1027715
21:00+7ene38700 0.0 1028143
19 april, mon
mon1900:00+5ene38745 0.0 1029157
03:00+4ene35770 0.0 103088
06:00+4ene37814 0.0 1031128
09:00+9e48655 0.0 1030540
12:00+12e575180 0.0 10301866
15:00+12e4656100 0.1 10301615
18:00+10ese3766100 0.1 1030388
21:00+8e3872100 0.1 1030244